DW8722 Weather Reports


Display with metric or nautical units.
time (UTC)temp
F
wind
direction
speed
MPH
gust
MPH
rain 1hr
in
rain 24hr
in
rain mn
in
humidity
%
barometer
mb
20260508123609 59 221 0.0 0.0 0.00 0.36 0.37 91 1015.3
20260508122548 59 164 1.0 1.0 0.05 0.36 0.37 92 1015.0
20260508120420 59 178 2.0 0.0 0.74 0.29 0.31 92 1015.3
20260508115439 59 176 1.0 5.0 0.00 0.19 0.19 91 1014.8
20260508114502 59 120 1.0 6.0 0.00 0.19 0.19 91 1014.4
20260508113458 59 105 2.0 6.0 0.00 0.19 0.19 92 1014.3
20260508112520 59 134 3.0 6.0 0.00 0.19 0.19 92 1014.6
20260508110408 59 167 6.0 11.0 0.04 0.18 0.18 92 1013.9
20260508105403 58 131 3.0 7.0 0.12 0.18 0.18 91 1014.6
20260508104410 58 217 2.0 9.0 0.35 0.13 0.15 91 1015.7
20260508102315 56 42 0.0 0.0 0.00 0.00 0.00 92 1013.9
20260508101325 56 43 0.0 0.0 0.00 0.00 0.00 91 1013.6
20260508100342 57 43 0.0 0.0 0.00 0.00 0.00 91 1013.7
20260508095319 57 43 0.0 0.0 0.00 0.00 0.00 91 1014.0
20260508094334 57 48 0.0 0.0 0.00 0.00 0.00 91 1013.9
20260508093318 57 136 0.0 0.0 0.00 0.00 0.00 91 1013.8
20260508092251 58 140 0.0 0.0 0.00 0.00 0.00 91 1014.2
20260508091254 58 181 0.0 0.0 0.00 0.00 0.00 91 1014.5
20260508090222 58 306 0.0 0.0 0.00 0.00 0.00 91 1014.5
20260508085229 58 115 1.0 0.0 0.00 0.00 0.00 91 1013.9
20260508084248 58 132 0.0 4.0 0.00 0.00 0.00 91 1014.5
20260508083222 58 145 0.0 0.0 0.00 0.00 0.00 91 1014.7
20260508082212 58 148 2.0 5.0 0.00 0.00 0.00 91 1014.6
20260508080127 56 101 0.0 0.0 0.00 0.00 0.00 91 1015.0
20260508075119 56 101 0.0 0.0 0.00 0.00 0.00 91 1015.3
20260508074044 56 101 0.0 0.0 0.00 0.00 0.00 91 1014.8
20260508073044 56 101 0.0 0.0 0.00 0.00 0.00 90 1014.8
20260508072021 56 126 0.0 0.0 0.00 0.00 0.00 91 1015.0
20260508071045 57 126 0.0 0.0 0.00 0.00 0.00 91 1015.2
20260508070026 57 126 0.0 0.0 0.00 0.00 0.00 91 1015.5
20260508063846 57 126 0.0 0.0 0.00 0.00 0.00 91 1015.8
20260508062858 57 126 0.0 0.0 0.00 0.00 0.00 90 1015.7
20260508061913 57 126 0.0 0.0 0.00 0.00 0.00 90 1015.7
20260508060901 57 126 0.0 0.0 0.00 0.00 0.00 90 1015.7
20260508055835 56 126 0.0 0.0 0.00 0.00 0.00 90 1015.7
20260508054859 56 126 0.0 0.0 0.00 0.00 0.00 90 1015.7
20260508053841 57 126 0.0 0.0 0.00 0.00 0.00 90 1015.9
20260508052813 56 126 0.0 0.0 0.00 0.00 0.00 89 1016.1
20260508050602 57 126 0.0 0.0 0.00 0.00 0.00 89 1015.9
20260508044421 57 126 0.0 0.0 0.00 0.00 0.00 87 1015.8
20260508043426 57 126 0.0 0.0 0.00 0.00 0.00 87 1015.8
20260508042429 57 136 0.0 0.0 0.00 0.00 0.00 87 1015.8
20260508041409 57 144 0.0 0.0 0.00 0.00 0.00 86 1015.9
20260508040335 58 144 0.0 0.0 0.00 0.00 0.00 85 1015.8
20260508034135 59 144 0.0 0.0 0.00 0.00 0.00 84 1015.7
20260508033152 59 144 0.0 0.0 0.00 0.00 0.00 84 1015.7
20260508032146 59 144 0.0 0.0 0.00 0.00 0.00 82 1015.7
20260508031204 60 144 0.0 0.0 0.00 0.00 0.00 82 1015.6
20260508030150 60 144 0.0 0.0 0.00 0.00 0.00 81 1015.6
20260508025146 61 144 0.0 0.0 0.00 0.00 0.00 80 1015.6
20260508024146 61 144 0.0 0.0 0.00 0.00 0.00 79 1015.4
20260508023113 62 144 0.0 0.0 0.00 0.00 0.00 78 1015.2
20260508022052 62 144 0.0 0.0 0.00 0.00 0.00 78 1015.2
20260508015919 64 144 0.0 0.0 0.00 0.00 0.00 77 1015.3
20260508014906 64 151 0.0 3.0 0.00 0.00 0.00 76 1015.1
20260508013901 64 145 1.0 4.0 0.00 0.00 0.00 75 1015.1
20260508012918 65 148 1.0 5.0 0.00 0.00 0.00 74 1015.0
20260508011938 66 160 2.0 5.0 0.00 0.00 0.00 73 1015.0
20260508010912 66 156 1.0 6.0 0.00 0.00 0.00 71 1014.8
20260508005844 67 168 3.0 9.0 0.00 0.00 0.00 69 1014.8
20260508004900 68 178 4.0 9.0 0.00 0.00 0.00 67 1014.8
20260508003925 69 173 0.0 6.0 0.00 0.00 0.00 62 1014.8
20260508001747 70 164 0.0 0.0 0.00 0.00 0.00 59 1015.0
20260508000742 70 173 0.0 0.0 0.00 0.00 0.00 59 1014.8
20260507235734 70 277 0.0 0.0 0.00 0.00 0.00 59 1014.8
20260507233622 71 301 0.0 0.0 0.00 0.00 0.00 54 1014.9
20260507232611 71 0 0.0 0.0 0.00 0.00 0.00 54 1014.9
20260507231539 71 355 0.0 1.0 0.00 0.00 0.00 52 1014.9
20260507230510 71 322 0.0 1.0 0.00 0.00 0.00 53 1015.1
20260507225521 71 12 0.0 0.0 0.00 0.00 0.00 53 1015.2
20260507223338 71 309 0.0 1.0 0.00 0.00 0.00 52 1015.4
20260507222329 72 53 0.0 2.0 0.00 0.00 0.00 49 1015.3
20260507221353 72 17 0.0 3.0 0.00 0.00 0.00 49 1015.5
20260507220343 72 15 0.0 4.0 0.00 0.00 0.00 48 1015.4
20260507215351 73 38 0.0 0.0 0.00 0.00 0.00 47 1015.4
20260507213224 73 239 0.0 0.0 0.00 0.00 0.00 46 1015.6
20260507212226 74 329 1.0 6.0 0.00 0.00 0.00 45 1015.7
20260507211201 74 29 0.0 3.0 0.00 0.00 0.00 47 1015.6
20260507210209 73 236 0.0 2.0 0.00 0.00 0.00 48 1015.7
20260507205218 74 0 3.0 10.0 0.00 0.00 0.00 46 1015.8
20260507204218 74 26 0.0 4.0 0.00 0.00 0.00 46 1015.9
20260507202045 74 0 1.0 8.0 0.00 0.00 0.00 49 1016.2
20260507201030 73 291 3.0 10.0 0.00 0.00 0.00 52 1016.3
20260507200027 73 308 3.0 10.0 0.00 0.00 0.00 50 1016.5
20260507193850 73 296 0.0 9.0 0.00 0.00 0.00 49 1016.7
20260507192831 72 29 4.0 12.0 0.00 0.00 0.00 51 1016.9
20260507191818 72 22 2.0 12.0 0.00 0.00 0.00 52 1016.9
20260507190812 72 355 4.0 9.0 0.00 0.00 0.00 52 1017.0
20260507185740 71 24 2.0 8.0 0.00 0.00 0.00 52 1017.1
20260507184800 71 351 3.0 11.0 0.00 0.00 0.00 55 1017.2
20260507183805 71 310 2.0 11.0 0.00 0.00 0.00 56 1017.5
20260507182747 70 60 2.0 11.0 0.00 0.00 0.00 57 1017.6
20260507181734 69 290 3.0 10.0 0.00 0.00 0.00 61 1017.8
20260507180710 69 355 4.0 10.0 0.00 0.00 0.00 60 1018.0
20260507174613 69 327 2.0 9.0 0.00 0.00 0.00 58 1018.5
20260507173559 68 317 1.0 9.0 0.00 0.00 0.00 59 1018.8
20260507172535 68 341 2.0 8.0 0.00 0.00 0.00 56 1019.1
20260507171536 67 76 3.0 8.0 0.00 0.00 0.00 58 1019.3
20260507165331 67 305 3.0 10.0 0.00 0.00 0.00 62 1019.5
20260507164328 66 339 3.0 7.0 0.00 0.00 0.00 60 1019.5
20260507163332 66 5 2.0 7.0 0.00 0.00 0.00 63 1019.7
20260507162343 66 313 1.0 5.0 0.00 0.00 0.00 67 1019.8
20260507161348 65 16 1.0 6.0 0.00 0.00 0.00 68 1019.8
20260507155212 63 71 0.0 0.0 0.00 0.01 0.00 69 1019.9
20260507154155 63 17 1.0 6.0 0.00 0.01 0.00 71 1020.0
20260507153150 62 49 0.0 2.0 0.00 0.01 0.00 75 1020.2
20260507152159 61 36 0.0 0.0 0.00 0.01 0.00 74 1020.3
20260507151159 61 39 1.0 4.0 0.00 0.01 0.00 75 1020.3
20260507145110 61 42 1.0 4.0 0.00 0.01 0.00 78 1020.4
20260507144048 60 62 0.0 3.0 0.00 0.01 0.00 80 1020.6
20260507143055 59 24 1.0 4.0 0.00 0.01 0.00 83 1020.7
20260507142114 58 48 0.0 3.0 0.00 0.01 0.00 86 1020.8
20260507135953 56 5 0.0 3.0 0.00 0.01 0.00 91 1020.9
20260507134957 55 355 0.0 0.0 0.00 0.01 0.00 92 1020.9
20260507134000 55 23 0.0 2.0 0.00 0.01 0.00 92 1021.0
20260507133000 53 0 0.0 0.0 0.00 0.01 0.00 91 1021.0
20260507132018 52 342 0.0 0.0 0.00 0.01 0.00 92 1020.9
20260507130954 51 305 0.0 0.0 0.00 0.01 0.00 92 1020.9
20260507125956 51 355 0.0 0.0 0.00 0.01 0.00 92 1020.8
20260507124951 50 248 0.0 0.0 0.00 0.01 0.00 92 1020.7